FENGYUN 1C

Last updated on Wed Sep 09 2026 00:02:11 GMT+0000 (Coordinated Universal Time)

1 25730U 99025A 26251.45526804 .00001691 00000+0 71002-3 0 9991 2 25730 98.8592 326.0734 0013142 24.8193 335.3616 14.27230316409833
UTC large
Height (km)
Speed (km/s)
/
Latitude / Longitude
Inclination (degrees)
Orbital Period (minutes)
Azimuth
Elevation
Range (km)
Doppler Factor

Next 0 passes for location: London (51.5072 / 0.1276)

No passes found over London.
FENGYUN 1C